• In Uzbekistan
  • List of Countries
  • For 7 days
  • Water Temperature
  • Satellite Maps
  • Weather Map
  • Weather Widgets
  • user-avatar
    Login

    Hourly Weather Ganta

    Today, 24 February, Saturday

    Time Temperature Precipitation Wind Pressure Humidity
    00:00 +24°C° 0.3 mm 1 mps 722 mmHg 94%
    01:00 +24°C° 0.3 mm 1 mps 722 mmHg 94%
    02:00 +23°C° 0.3 mm 1 mps 722 mmHg 94%
    03:00 +23°C° 0 mm 1 mps 722 mmHg 94%
    04:00 +22°C° 0 mm 1 mps 722 mmHg 94%
    05:00 +22°C° 0 mm 1 mps 722 mmHg 94%
    06:00 +23°C° 0.1 mm 1 mps 722 mmHg 86%
    07:00 +25°C° 0.1 mm 1 mps 722 mmHg 78%
    08:00 +26°C° 0.1 mm 1 mps 723 mmHg 70%
    09:00 +28°C° 0.1 mm 1 mps 723 mmHg 61%
    10:00 +30°C° 0.1 mm 1 mps 723 mmHg 51%
    11:00 +33°C° 0.1 mm 1 mps 723 mmHg 41%
    12:00 +33°C° 0 mm 1 mps 723 mmHg 40%
    13:00 +34°C° 0 mm 1 mps 722 mmHg 38%
    14:00 +35°C° 0 mm 1 mps 721 mmHg 36%
    15:00 +34°C° 0 mm 1 mps 721 mmHg 40%
    16:00 +33°C° 0 mm 1 mps 721 mmHg 44%
    17:00 +32°C° 0 mm 1 mps 721 mmHg 48%
    18:00 +30°C° 0.1 mm 1 mps 722 mmHg 54%
    19:00 +28°C° 0.1 mm 1 mps 722 mmHg 60%
    20:00 +26°C° 0.1 mm 1 mps 722 mmHg 66%
    21:00 +26°C° 0 mm 1 mps 722 mmHg 69%
    22:00 +25°C° 0 mm 1 mps 723 mmHg 73%
    23:00 +23°C° 0 mm 0 mps 723 mmHg 76%

    Tomorrow, 25 February, Sunday

    Time Temperature Precipitation Wind Pressure Humidity
    00:00 +22°C° 0 mm 0 mps 723 mmHg 79%
    01:00 +22°C° 0 mm 0 mps 722 mmHg 83%
    02:00 +24°C° 0 mm 1 mps 722 mmHg 86%
    03:00 +21°C° 0 mm 0 mps 722 mmHg 88%
    04:00 +21°C° 0 mm 0 mps 722 mmHg 90%
    05:00 +21°C° 0 mm 0 mps 722 mmHg 92%
    06:00 +24°C° 0 mm 1 mps 723 mmHg 87%
    07:00 +25°C° 0 mm 1 mps 723 mmHg 81%
    08:00 +26°C° 0 mm 1 mps 724 mmHg 75%
    09:00 +29°C° 0 mm 1 mps 724 mmHg 65%
    10:00 +31°C° 0 mm 1 mps 724 mmHg 55%
    11:00 +34°C° 0 mm 1 mps 724 mmHg 45%
    12:00 +35°C° 0 mm 1 mps 723 mmHg 41%
    13:00 +34°C° 0 mm 0 mps 722 mmHg 38%
    14:00 +35°C° 0 mm 0 mps 722 mmHg 34%
    15:00 +33°C° 0 mm 0 mps 721 mmHg 39%
    16:00 +31°C° 0 mm 0 mps 721 mmHg 44%
    17:00 +32°C° 0 mm 1 mps 721 mmHg 49%
    18:00 +30°C° 0 mm 1 mps 722 mmHg 54%
    19:00 +29°C° 0 mm 1 mps 722 mmHg 58%
    20:00 +28°C° 0 mm 1 mps 723 mmHg 63%
    21:00 +27°C° 0.1 mm 1 mps 723 mmHg 67%
    22:00 +26°C° 0.1 mm 1 mps 723 mmHg 72%
    23:00 +26°C° 0.1 mm 1 mps 723 mmHg 77%

    Day after tomorrow, 26 February, Monday

    Time Temperature Precipitation Wind Pressure Humidity
    00:00 +25°C° 0.1 mm 1 mps 722 mmHg 81%
    01:00 +25°C° 0.1 mm 1 mps 722 mmHg 84%
    02:00 +22°C° 0.1 mm 0 mps 721 mmHg 88%
    03:00 +22°C° 0 mm 0 mps 721 mmHg 90%
    04:00 +21°C° 0 mm 0 mps 722 mmHg 92%
    05:00 +21°C° 0 mm 0 mps 722 mmHg 94%
    06:00 +23°C° 0.1 mm 0 mps 722 mmHg 86%
    07:00 +24°C° 0.1 mm 0 mps 723 mmHg 78%
    08:00 +26°C° 0.1 mm 0 mps 724 mmHg 69%
    09:00 +29°C° 0.1 mm 0 mps 724 mmHg 59%
    10:00 +32°C° 0.1 mm 0 mps 723 mmHg 49%
    11:00 +35°C° 0.1 mm 0 mps 723 mmHg 38%
    12:00 +35°C° 0 mm 0 mps 722 mmHg 38%
    13:00 +34°C° 0 mm 0 mps 721 mmHg 38%
    14:00 +34°C° 0 mm 0 mps 721 mmHg 38%
    15:00 +33°C° 0 mm 0 mps 721 mmHg 41%
    16:00 +32°C° 0 mm 0 mps 721 mmHg 45%
    17:00 +30°C° 0 mm 0 mps 721 mmHg 48%
    18:00 +31°C° 0.8 mm 1 mps 721 mmHg 58%
    19:00 +29°C° 0.8 mm 1 mps 722 mmHg 68%
    20:00 +27°C° 0.8 mm 1 mps 722 mmHg 78%
    21:00 +26°C° 2.2 mm 1 mps 723 mmHg 83%
    22:00 +26°C° 2.2 mm 1 mps 723 mmHg 88%
    23:00 +25°C° 2.2 mm 1 mps 723 mmHg 93%

    27 February, Tuesday

    Time Temperature Precipitation Wind Pressure Humidity
    00:00 +25°C° 0.3 mm 1 mps 723 mmHg 94%
    01:00 +24°C° 0.3 mm 1 mps 722 mmHg 96%
    02:00 +24°C° 0.3 mm 1 mps 722 mmHg 97%
    03:00 +24°C° 0.4 mm 1 mps 722 mmHg 97%
    04:00 +24°C° 0.4 mm 1 mps 722 mmHg 97%
    05:00 +23°C° 0.4 mm 1 mps 722 mmHg 98%
    06:00 +24°C° 0.2 mm 1 mps 723 mmHg 94%
    07:00 +25°C° 0.2 mm 1 mps 723 mmHg 90%
    08:00 +26°C° 0.2 mm 1 mps 724 mmHg 86%
    09:00 +28°C° 0 mm 1 mps 724 mmHg 76%
    10:00 +30°C° 0 mm 1 mps 724 mmHg 66%
    11:00 +32°C° 0 mm 1 mps 723 mmHg 56%
    12:00 +33°C° 0.3 mm 1 mps 723 mmHg 54%
    13:00 +33°C° 0.3 mm 1 mps 722 mmHg 52%
    14:00 +34°C° 0.3 mm 1 mps 721 mmHg 50%
    15:00 +33°C° 0.8 mm 1 mps 721 mmHg 54%
    16:00 +32°C° 0.8 mm 1 mps 721 mmHg 57%
    17:00 +31°C° 0.8 mm 1 mps 722 mmHg 61%
    18:00 +29°C° 0.8 mm 1 mps 722 mmHg 70%
    19:00 +28°C° 0.8 mm 1 mps 722 mmHg 79%
    20:00 +26°C° 0.8 mm 1 mps 723 mmHg 88%
    21:00 +25°C° 0.3 mm 1 mps 723 mmHg 91%
    22:00 +25°C° 0.3 mm 1 mps 723 mmHg 94%
    23:00 +24°C° 0.3 mm 1 mps 723 mmHg 97%

    28 February, Wednesday

    Time Temperature Precipitation Wind Pressure Humidity
    00:00 +24°C° 0.9 mm 1 mps 723 mmHg 97%
    01:00 +24°C° 0.9 mm 1 mps 723 mmHg 98%
    02:00 +24°C° 0.9 mm 1 mps 722 mmHg 98%
    03:00 +24°C° 0 mm 1 mps 722 mmHg 98%
    04:00 +24°C° 0 mm 1 mps 722 mmHg 98%
    05:00 +21°C° 0 mm 0 mps 722 mmHg 99%
    06:00 +24°C° 0 mm 1 mps 723 mmHg 93%
    07:00 +26°C° 0 mm 1 mps 724 mmHg 88%
    08:00 +27°C° 0 mm 1 mps 724 mmHg 82%
    09:00 +30°C° 0.2 mm 1 mps 724 mmHg 70%
    10:00 +32°C° 0.2 mm 1 mps 724 mmHg 58%
    11:00 +35°C° 0.2 mm 1 mps 724 mmHg 47%
    12:00 +35°C° 0 mm 1 mps 723 mmHg 45%
    13:00 +35°C° 0 mm 1 mps 722 mmHg 43%
    14:00 +35°C° 0 mm 1 mps 721 mmHg 41%
    15:00 +34°C° 0 mm 1 mps 721 mmHg 46%
    16:00 +33°C° 0 mm 1 mps 721 mmHg 50%
    17:00 +30°C° 0 mm 0 mps 721 mmHg 55%
    18:00 +30°C° 0.7 mm 1 mps 722 mmHg 64%
    19:00 +28°C° 0.7 mm 1 mps 722 mmHg 73%
    20:00 +27°C° 0.7 mm 1 mps 723 mmHg 82%
    21:00 +26°C° 0.6 mm 1 mps 723 mmHg 86%
    22:00 +25°C° 0.6 mm 1 mps 723 mmHg 91%
    23:00 +25°C° 0.6 mm 1 mps 723 mmHg 95%

    1 March, Thursday

    Time Temperature Precipitation Wind Pressure Humidity
    00:00 +25°C° 1.9 mm 1 mps 723 mmHg 96%
    01:00 +24°C° 1.9 mm 1 mps 723 mmHg 96%
    02:00 +24°C° 1.9 mm 1 mps 722 mmHg 97%
    03:00 +24°C° 1 mm 1 mps 723 mmHg 97%
    04:00 +24°C° 1 mm 1 mps 723 mmHg 97%
    05:00 +24°C° 1 mm 1 mps 723 mmHg 97%
    06:00 +25°C° 0.1 mm 1 mps 723 mmHg 93%
    07:00 +25°C° 0.1 mm 1 mps 724 mmHg 90%
    08:00 +26°C° 0.1 mm 1 mps 724 mmHg 86%
    09:00 +29°C° 0.1 mm 1 mps 724 mmHg 75%
    10:00 +31°C° 0.1 mm 1 mps 724 mmHg 63%
    11:00 +34°C° 0.1 mm 1 mps 724 mmHg 52%
    12:00 +33°C° 0.9 mm 1 mps 723 mmHg 55%
    13:00 +33°C° 0.9 mm 1 mps 722 mmHg 58%
    14:00 +33°C° 0.9 mm 1 mps 721 mmHg 61%
    15:00 +31°C° 1.3 mm 1 mps 721 mmHg 69%
    16:00 +29°C° 1.3 mm 1 mps 722 mmHg 77%
    17:00 +28°C° 1.3 mm 1 mps 722 mmHg 86%
    18:00 +27°C° 0.5 mm 1 mps 722 mmHg 89%
    19:00 +26°C° 0.5 mm 1 mps 723 mmHg 92%
    20:00 +25°C° 0.5 mm 1 mps 723 mmHg 95%
    21:00 +24°C° 0 mm 1 mps 723 mmHg 96%
    22:00 +24°C° 0 mm 1 mps 723 mmHg 97%
    23:00 +24°C° 0 mm 1 mps 724 mmHg 98%
    Show more